Back to catalog

CZ-6A DEB

AlivePO
NORAD 64643·DEBRIS·🇨🇳 China

Launched Aug 6, 2024 from Taiyuan Satellite Launch Center

Loading…

Next Passes (next 24 hours)

TLE

FreshSource: Space-Track

Epoch: Sep 14, 2026, 11:31 UTC

1 64643U 24140AEH 26257.48002502  .00001674  00000-0  66101-3 0  9992
2 64643  89.1402 276.9539 0069737 295.0942  64.3026 14.27355488102734

Track CZ-6A DEB in real time with AllMySat

Download on the App Store